Erie, PA

8:42 AM EDT on September 25, 2017 (GMT -0400)
Erie International

Weather History for KERI - July, 2012

Change the Weather History Date:

Thursday, July 19, 2012

  Actual Average Record
Temperature  
Mean Temperature 71 °F 72 °F  
Max Temperature 77 °F 80 °F 93 °F (1946)
Min Temperature 64 °F 64 °F 52 °F (1979)
Degree Days  
Heating Degree Days 0 0  
Month to date heating degree days 0 2  
Since 1 June heating degree days 43 63  
Since 1 July heating degree days 0 2  
Cooling Degree Days 6 7  
Month to date cooling degree days 213 131  
Year to date cooling degree days 492 293  
Since 1 June cooling degree days 397 254  
Growing Degree Days 20 (Base 50)    
Moisture  
Dew Point 67 °F    
Average Humidity 83    
Maximum Humidity 93    
Minimum Humidity 73    
Precipitation  
Precipitation 0.47 in 0.12 in 1.30 in (1946)
Month to date precipitation 2.03 2.09  
Year to date precipitation 17.13 20.91  
Snow  
Snow 0.00 in 0.00 in - ()
Month to date snowfall 0.0 0.0  
Since 1 June snowfall 0.0 0.0  
Since 1 July snowfall 0.0 0.0  
Snow Depth 0.00 in    
Sea Level Pressure  
Sea Level Pressure 29.94 in    
Wind  
Wind Speed 8 mph (NE)    
Max Wind Speed 24 mph    
Max Gust Speed 28 mph    
Visibility 6 miles    
Events Rain    
T = Trace of Precipitation, MM = Missing Value Source: NWS Daily Summary

Daily Weather History Graph

Daily Weather History Graph

Search for Another Location

Airport or City:

Trip Planner

Search our weather history database for the weather conditions in past years. The results will help you decide how hot, cold, wet, or windy it might be!

Date:

Astronomy

Jul. 19, 2012 Rise Set
Actual Time 6:01 AM EDT 8:51 PM EDT
Civil Twilight 5:29 AM EDT 9:24 PM EDT
Nautical Twilight 4:47 AM EDT 10:05 PM EDT
Astronomical Twilight 3:59 AM EDT 10:53 PM EDT
Moon 6:36 AM EDT (7/19) 8:54 PM EDT (7/19)
Length of Visible Light 15h 55m
Length of Day
14h 49m
New Moon, 0% of the Moon is Illuminated
Jul 19
New Moon
Jul 26
First Quarter
Aug 1
Full
Aug 9
Last Quarter
Aug 17
New

Hourly Weather History & Observations

Time (EDT) Temp. Dew Point Humidity Pressure Visibility Wind Dir Wind Speed Gust Speed Precip Events Conditions
12:51 AM 70.0 °F 66.0 °F 87% 29.96 in 8.0 mi Calm Calm - N/A   Clear
1:51 AM 70.0 °F 66.0 °F 87% 29.95 in 8.0 mi Calm Calm - N/A   Clear
2:51 AM 70.0 °F 66.0 °F 87% 29.93 in 8.0 mi SSW 3.5 mph - N/A   Clear
3:51 AM 69.1 °F 64.9 °F 87% 29.93 in 7.0 mi Calm Calm - N/A   Clear
4:51 AM 68.0 °F 64.9 °F 90% 29.94 in 7.0 mi Calm Calm - N/A   Clear
5:51 AM 69.1 °F 64.9 °F 87% 29.95 in 10.0 mi Calm Calm - N/A   Mostly Cloudy
6:51 AM 69.1 °F 64.9 °F 87% 29.95 in 10.0 mi Calm Calm - N/A   Scattered Clouds
7:51 AM 72.0 °F 64.9 °F 78% 29.96 in 10.0 mi SSE 3.5 mph - N/A   Scattered Clouds
8:51 AM 73.0 °F 64.9 °F 76% 29.96 in 10.0 mi South 4.6 mph - N/A   Mostly Cloudy
9:51 AM 75.0 °F 66.0 °F 73% 29.96 in 5.0 mi Calm Calm - 0.00 in Rain Light Rain
9:56 AM 73.4 °F 66.2 °F 78% 29.98 in 1.8 mi Calm Calm - 0.01 in Rain Heavy Rain
10:11 AM 73.4 °F 68.0 °F 83% 29.97 in 3.0 mi ESE 3.5 mph - 0.08 in Rain Light Rain
10:24 AM 73.4 °F 68.0 °F 83% 29.96 in 10.0 mi Calm Calm - N/A   Overcast
10:51 AM 75.9 °F 68.0 °F 76% 29.95 in 10.0 mi Calm Calm - 0.08 in   Mostly Cloudy
11:51 AM 75.9 °F 68.0 °F 76% 29.94 in 9.0 mi NNE 5.8 mph - 0.00 in   Overcast
12:27 PM 73.4 °F 69.8 °F 88% 29.96 in 1.8 mi North 5.8 mph - 0.03 in Rain Heavy Rain
12:46 PM 71.6 °F 69.8 °F 94% 29.99 in 3.0 mi WNW 5.8 mph - 0.13 in Rain Light Rain
12:51 PM 72.0 °F 69.1 °F 91% 29.99 in 3.0 mi NW 5.8 mph - 0.13 in Rain Light Rain
12:56 PM 71.6 °F 69.8 °F 94% 29.99 in 1.8 mi North 8.1 mph - 0.03 in Rain Heavy Rain
1:11 PM 71.6 °F 69.8 °F 94% 29.99 in 2.0 mi NW 3.5 mph - 0.10 in Rain Rain
1:19 PM 71.6 °F 69.8 °F 94% 29.99 in 2.0 mi North 4.6 mph - 0.12 in Rain Rain
1:41 PM 71.6 °F 69.8 °F 94% 29.97 in 3.0 mi NE 6.9 mph - 0.15 in Rain Light Rain
1:51 PM 72.0 °F 70.0 °F 93% 29.95 in 4.0 mi ENE 9.2 mph - 0.15 in Rain Light Rain
2:04 PM 73.4 °F 69.8 °F 88% 29.95 in 4.0 mi ENE 10.4 mph - 0.00 in Rain Light Rain
2:17 PM 73.4 °F 69.8 °F 88% 29.95 in 4.0 mi NE 10.4 mph - 0.00 in Rain Light Rain
2:51 PM 73.9 °F 69.1 °F 85% 29.94 in 6.0 mi NE 11.5 mph - 0.00 in Rain Light Rain
2:58 PM 73.4 °F 69.8 °F 88% 29.93 in 7.0 mi ENE 15.0 mph - 0.00 in Rain Light Rain
3:51 PM 73.9 °F 68.0 °F 82% 29.91 in 7.0 mi NE 12.7 mph 23.0 mph 0.00 in   Overcast
4:51 PM 73.0 °F 68.0 °F 84% 29.91 in 8.0 mi ENE 11.5 mph - 0.00 in Rain Light Rain
5:49 PM 71.6 °F 66.2 °F 83% 29.92 in 10.0 mi NE 16.1 mph - 0.00 in   Overcast
5:51 PM 71.1 °F 66.0 °F 84% 29.91 in 10.0 mi NE 19.6 mph 25.3 mph 0.00 in   Overcast
6:07 PM 69.8 °F 64.4 °F 83% 29.92 in 10.0 mi NE 21.9 mph 26.5 mph N/A   Overcast
6:51 PM 70.0 °F 64.9 °F 84% 29.90 in 10.0 mi ENE 21.9 mph 27.6 mph 0.00 in   Overcast
7:08 PM 69.8 °F 64.4 °F 83% 29.92 in 10.0 mi ENE 18.4 mph 27.6 mph N/A   Overcast
7:51 PM 69.1 °F 64.9 °F 87% 29.92 in 7.0 mi ENE 15.0 mph - 0.00 in Rain Light Rain
8:51 PM 66.9 °F 64.0 °F 90% 29.91 in 7.0 mi ENE 13.8 mph - 0.00 in   Overcast
8:58 PM 66.2 °F 64.4 °F 94% 29.92 in 8.0 mi NE 13.8 mph - N/A   Overcast
9:51 PM 66.9 °F 64.0 °F 90% 29.91 in 7.0 mi ENE 11.5 mph - N/A   Overcast
10:18 PM 66.2 °F 64.4 °F 94% 29.93 in 6.0 mi NE 12.7 mph - 0.00 in   Overcast
10:51 PM 64.9 °F 63.0 °F 93% 29.94 in 4.0 mi NE 17.3 mph 20.7 mph 0.00 in Rain Light Rain
11:51 PM 64.0 °F 63.0 °F 96% 29.93 in 3.0 mi ENE 12.7 mph - 0.05 in Rain Light Rain